Notices

What's New in latest Release from April 7th, 2021:

- Updated Glossary, including Speed of Maximum Gust, and Total Hourly Precipitation

- Updated national and regional climate services offices contacts and prices information

- Addition of station inventory lists for 1981-2010, 1971-2000, and 1961-1990 Normals.

If you haven't already, please take our survey and provide feedback about our website: https://eccc.sondage-survey.ca/f/LanguageSelection.aspx?s=442ca660-fcf1-47c0-95a9-59707d6fd709

Hourly Data Report for May 08, 2021

KUGAARUK CLIMATE
NUNAVUT
Current Station Operator: ECCC - MSC

68°32'15.060" N
89°47'47.020" W
15.80 m
2303094
71407
NBB

Download Data

Hourly Data (May 2021)
Hourly Data Report for May 8, 2021
TIME
LST
Temp Definition
°C
Dew Point Definition
°C
Rel Hum Definition
%
Precip. Amount Definition
mm

Wind Dir Definition
10's deg

Wind Spd Definition
km/h
Visibility Definition
km
Stn Press Definition
kPa
Hmdx Definition


Wind Chill Definition


Weather Definition


00:00 -5.0 -6.6 89 0.0 24 14   102.65   -10 LegendNANA
01:00 -5.4 -7.0 88 0.0 23 9   102.65   -9 LegendNANA
02:00 -5.4 -7.1 88 0.0 18 7   102.69   -9 LegendNANA
03:00 -5.4 -7.2 87 0.0 22 6   102.72   -8 LegendNANA
04:00 -5.3 -7.1 87 0.0 24 13   102.73   -10 LegendNANA
05:00 -5.2 -7.3 85 0.0 24 11   102.76   -10 LegendNANA
06:00 -5.1 -7.4 84 0.0 25 13   102.78   -10 LegendNANA
07:00 -4.9 -7.6 81 0.0 25 7   102.80   -8 LegendNANA
08:00 -4.4 -7.4 79 0.0 25 11   102.80   -9 LegendNANA
09:00 -3.9 -7.7 75 0.0 31 6   102.80   -7 LegendNANA
10:00 -3.8 -8.1 72 0.0 31 7   102.80   -7 LegendNANA
11:00 -3.4 -7.4 74 0.0 34 9   102.82   -7 LegendNANA
12:00 -3.2 -6.9 76 0.0 32 10   102.84   -7 LegendNANA
13:00 -3.2 -8.1 69 0.0 31 9   102.85   -7 LegendNANA
14:00 -3.6 -8.2 70 0.0 33 8   102.88   -7 LegendNANA
15:00 -3.6 -7.6 74 0.0 35 8   102.90   -7 LegendNANA
16:00 -3.4 -7.4 74 0.0 35 6   102.90   -6 LegendNANA
17:00 -3.7 -7.5 75 0.0 32 8   102.88   -7 LegendNANA
18:00 -4.0 -7.1 79 0.0 27 8   102.87   -7 LegendNANA
19:00 -4.4 -7.4 79 0.0 35 5   102.87   -7 LegendNANA
20:00 -4.7 -7.4 82 0.0 1 6   102.85   -7 LegendNANA
21:00 -5.3 -7.6 84 0.0 25 5   102.85   -8 LegendNANA
22:00 -5.6 -8.2 82 0.0 31 2   102.84   -7 LegendNANA
23:00 -7.7 -9.7 85 0.0 18 5   102.81   -10 LegendNANA

Notes on Data Quality.

Legend

  • E = Estimated
  • M = Missing
  • NA = Not Available*
  • [empty] = Indicates an unobserved value
Date modified: